Regional Weather Roundup
Issued by NWS

Home | Current Version | Previous Version | Graphics & Text | Print | Product List | Glossary On
Versions: 1 2 3 4 5 6 7 8 9 10 11 12 13 14 15 16 17 18 19 20 21 22 23 24 25 26 27 28 29 30 31 32 33 34 35 36 37 38 39 40 41 42 43 44 45 46 47 48 49 50
000
ASUS43 KBIS 260402
RWRND

NORTH DAKOTA REGIONAL WEATHER ROUNDUP
NATIONAL WEATHER SERVICE BISMARCK ND
1100 PM CDT SAT MAR 25 2017

NOTE: "FAIR" INDICATES FEW OR NO CLOUDS BELOW 12,000 FEET WITH NO
SIGNIFICANT WEATHER AND/OR OBSTRUCTIONS TO VISIBILITY.


NDZ001>003-009>011-017-260500-
NORTHWEST NORTH DAKOTA

CITY           SKY/WX    TMP DP  RH WIND       PRES   REMARKS
WILLISTON      FAIR      46  32  58 W3        29.88S
MINOT          CLOUDY    47  35  63 SW8       29.87F
MINOT AFB      CLOUDY    41  35  79 W3        29.86F
$$

NDZ018>021-031>035-040>046-260500-
SOUTHWEST NORTH DAKOTA

CITY           SKY/WX    TMP DP  RH WIND       PRES   REMARKS
BISMARCK       CLOUDY    45  34  65 SE5       29.93S
DICKINSON      CLOUDY    44  29  55 S3        29.88S
GARRISON         N/A     40  33  76 SE6       29.88F
HETTINGER ARPT CLOUDY    46  34  62 E3        29.89F
$$

NDZ004>008-012>016-024-026-027-054-260500-
NORTHEAST NORTH DAKOTA

CITY           SKY/WX    TMP DP  RH WIND       PRES   REMARKS
GRAND FORKS    CLOUDY    34  33  96 SE9       29.99F
GRND FRKS AFB  CLOUDY    34  33  95 S6        29.98F
DEVILS LAKE    CLOUDY    35  32  88 S9        29.95F
$$

NDZ022-023-025-028>030-036>039-047>053-260500-
SOUTHEAST NORTH DAKOTA

CITY           SKY/WX    TMP DP  RH WIND       PRES   REMARKS
FARGO          CLOUDY    30  28  92 CALM      30.02F
JAMESTOWN      FAIR      32  30  92 S8        29.97R
$$




USA.gov is the U.S. government's official web portal to all federal, state and local government web resources and services.